Wheeler AAF, HI

4:14 AM HST on September 19, 2017 (GMT -1000)
Wheeler Army Air Field

Weather History for PHHI - May, 2013

Change the Weather History Date:

Thursday, May 16, 2013

  Actual Average Record
Temperature  
Mean Temperature 73 °F -  
Max Temperature 79 °F 77 °F 84 °F (2002)
Min Temperature 67 °F 63 °F 59 °F (2000)
Cooling Degree Days 8    
Growing Degree Days 23 (Base 50)    
Moisture  
Dew Point 64 °F    
Average Humidity 78    
Maximum Humidity 94    
Minimum Humidity 52    
Precipitation  
Precipitation 0.01 in - - ()
Sea Level Pressure  
Sea Level Pressure 30.08 in    
Wind  
Wind Speed 8 mph (NE)    
Max Wind Speed 20 mph    
Max Gust Speed 25 mph    
Visibility 10 miles    
Events Rain    
Averages and records for this station are not official NWS values.
T = Trace of Precipitation, MM = Missing Value Source: NWS Daily Summary

Daily Weather History Graph

Daily Weather History Graph

Search for Another Location

Airport or City:

Trip Planner

Search our weather history database for the weather conditions in past years. The results will help you decide how hot, cold, wet, or windy it might be!

Date:

Astronomy

May. 16, 2013 Rise Set
Actual Time 5:53 AM HST 7:04 PM HST
Civil Twilight 5:29 AM HST 7:28 PM HST
Nautical Twilight 5:00 AM HST 7:56 PM HST
Astronomical Twilight 4:31 AM HST 8:26 PM HST
Moon 11:23 AM HST (5/16) No Moon Set
Length of Visible Light 13h 59m
Length of Day
13h 11m
Waxing Crescent, 38% of the Moon is Illuminated
May 16
Waxing Crescent
May 17
First Quarter
May 24
Full
May 31
Last Quarter
Jun 8
New

Hourly Weather History & Observations

Time (HST) Temp. Dew Point Humidity Pressure Visibility Wind Dir Wind Speed Gust Speed Precip Events Conditions
12:15 AM 69.8 °F 66.2 °F 88% 30.12 in 10.0 mi NE 5.8 mph - N/A   Partly Cloudy
12:33 AM 69.8 °F 66.2 °F 88% 30.11 in 10.0 mi ENE 8.1 mph - N/A   Light Drizzle
12:55 AM 70.3 °F 65.3 °F 84% 30.11 in 10.0 mi NE 6.9 mph - 0.00 in Rain Light Rain
1:19 AM 69.8 °F 66.2 °F 88% 30.09 in 10.0 mi NE 10.4 mph - N/A   Clear
1:20 AM 69.8 °F 66.2 °F 88% 30.09 in 10.0 mi NE 9.2 mph - N/A   Light Drizzle
1:25 AM 69.8 °F 66.2 °F 88% 30.09 in 10.0 mi NE 5.8 mph - N/A   Clear
1:26 AM 69.8 °F 66.2 °F 88% 30.09 in 10.0 mi NE 5.8 mph - N/A   Light Drizzle
1:30 AM 69.8 °F 66.2 °F 88% 30.09 in 10.0 mi NNE 4.6 mph - N/A   Clear
1:38 AM 69.8 °F 64.4 °F 83% 30.09 in 10.0 mi Calm Calm - N/A   Light Drizzle
1:49 AM 69.8 °F 66.2 °F 88% 30.09 in 10.0 mi Variable 4.6 mph - N/A   Scattered Clouds
1:55 AM 70.3 °F 65.3 °F 84% 30.09 in 10.0 mi ENE 6.9 mph - 0.00 in   Scattered Clouds
1:57 AM 69.8 °F 66.2 °F 88% 30.09 in 10.0 mi ENE 9.2 mph - N/A   Light Drizzle
2:06 AM 69.8 °F 64.4 °F 83% 30.08 in 10.0 mi ENE 9.2 mph - N/A   Scattered Clouds
2:37 AM 69.8 °F 64.4 °F 83% 30.07 in 10.0 mi NE 10.4 mph - N/A   Light Drizzle
2:47 AM 69.8 °F 64.4 °F 83% 30.07 in 10.0 mi NE 8.1 mph - N/A   Partly Cloudy
2:55 AM 69.8 °F 64.6 °F 83% 30.07 in 10.0 mi NNE 5.8 mph - 0.00 in Rain Light Rain
3:51 AM 68.0 °F 64.4 °F 88% 30.06 in 10.0 mi WNW 4.6 mph - N/A   Partly Cloudy
3:55 AM 68.2 °F 65.1 °F 90% 30.06 in 10.0 mi WNW 5.8 mph - 0.01 in   Partly Cloudy
4:36 AM 68.0 °F 66.2 °F 94% 30.07 in 10.0 mi NNE 3.5 mph - N/A   Light Drizzle
4:55 AM 68.5 °F 64.9 °F 88% 30.07 in 10.0 mi WNW 4.6 mph - 0.00 in   Light Drizzle
4:58 AM 68.0 °F 64.4 °F 88% 30.07 in 10.0 mi West 4.6 mph - N/A   Partly Cloudy
5:55 AM 68.2 °F 63.9 °F 86% 30.08 in 10.0 mi North 3.5 mph - 0.00 in   Partly Cloudy
6:55 AM 67.3 °F 63.9 °F 89% 30.10 in 10.0 mi WNW 3.5 mph - N/A   Partly Cloudy
7:55 AM 72.5 °F 65.5 °F 79% 30.11 in 10.0 mi ENE 6.9 mph - N/A   Clear
8:55 AM 74.8 °F 63.7 °F 68% 30.11 in 10.0 mi ENE 11.5 mph - N/A   Clear
9:55 AM 77.5 °F 63.0 °F 61% 30.11 in 10.0 mi East 9.2 mph - N/A   Scattered Clouds
10:55 AM 78.3 °F 61.9 °F 57% 30.10 in 10.0 mi East 13.8 mph 18.4 mph N/A   Scattered Clouds
11:55 AM 79.5 °F 61.5 °F 54% 30.09 in 10.0 mi East 19.6 mph 23.0 mph N/A   Partly Cloudy
12:55 PM 79.9 °F 61.7 °F 54% 30.07 in 10.0 mi East 16.1 mph 25.3 mph N/A   Mostly Cloudy
1:55 PM 79.9 °F 63.0 °F 56% 30.06 in 10.0 mi ENE 12.7 mph - N/A   Clear
2:55 PM 79.9 °F 61.0 °F 52% 30.04 in 10.0 mi ENE 16.1 mph - N/A   Clear
3:55 PM 78.8 °F 62.6 °F 57% 30.04 in 10.0 mi ENE 17.3 mph 24.2 mph N/A   Clear
4:55 PM 77.7 °F 62.6 °F 60% 30.04 in 10.0 mi ENE 10.4 mph - N/A   Clear
5:55 PM 76.5 °F 61.3 °F 59% 30.05 in 10.0 mi East 13.8 mph - N/A   Clear
6:55 PM 73.2 °F 62.2 °F 68% 30.07 in 10.0 mi ENE 6.9 mph - N/A   Clear
7:55 PM 72.1 °F 63.0 °F 73% 30.07 in 10.0 mi NE 11.5 mph - N/A   Clear
8:55 PM 71.4 °F 63.3 °F 76% 30.08 in 10.0 mi NE 10.4 mph - N/A   Clear
9:55 PM 71.6 °F 63.1 °F 75% 30.09 in 10.0 mi ENE 9.2 mph - N/A   Clear
10:55 PM 70.9 °F 63.5 °F 77% 30.09 in 10.0 mi East 4.6 mph - N/A   Scattered Clouds
11:55 PM 70.5 °F 63.3 °F 78% 30.08 in 10.0 mi NE 3.5 mph - N/A   Clear